Moline, IL

6:09 PM CST on February 07, 2016 (GMT -0600)
Quad-City International

Weather History for KMLI - February, 2013

Change the Weather History Date:

Monday, February 11, 2013

  Actual Average Record
Temperature  
Mean Temperature 33 °F 26 °F  
Max Temperature 37 °F 34 °F 69 °F (1999)
Min Temperature 29 °F 17 °F -22 °F (2014)
Degree Days  
Heating Degree Days 32 39  
Month to date heating degree days 413 448  
Since 1 July heating degree days 3985 4182  
Cooling Degree Days 0 0  
Month to date cooling degree days 0 0  
Year to date cooling degree days 0 0  
Moisture  
Dew Point 22 °F    
Average Humidity 68    
Maximum Humidity 76    
Minimum Humidity 59    
Precipitation  
Precipitation 0.00 in 0.05 in 1.14 in (1998)
Month to date precipitation 1.15 0.51  
Year to date precipitation 4.01 2.00  
Snow  
Snow 0.00 in 0.30 in - ()
Month to date snowfall 1.1 3.1  
Since 1 July snowfall 10.7 23.0  
Snow Depth 0.00 in    
Sea Level Pressure  
Sea Level Pressure 29.88 in    
Wind  
Wind Speed 22 mph (West)    
Max Wind Speed 37 mph    
Max Gust Speed 51 mph    
Visibility 10 miles    
Events      
T = Trace of Precipitation, MM = Missing Value Source: NWS Daily Summary

Daily Weather History Graph

Daily Weather History Graph

Search for Another Location

Airport or City:

Trip Planner

Search our weather history database for the weather conditions in past years. The results will help you decide how hot, cold, wet, or windy it might be!

Date:

Astronomy

Feb. 11, 2013 Rise Set
Actual Time 7:01 AM CST 5:31 PM CST
Civil Twilight 6:33 AM CST 5:59 PM CST
Nautical Twilight 6:00 AM CST 6:32 PM CST
Astronomical Twilight 5:28 AM CST 7:04 PM CST
Moon 7:24 AM CST (2/11) 7:30 PM CST (2/11)
Length of Visible Light 11h 26m
Length of Day
10h 29m
Waxing Crescent, 3% of the Moon is Illuminated
Feb 11
Waxing Crescent
Feb 17
First Quarter
Feb 25
Full
Mar 4
Last Quarter
Mar 11
New

Hourly Weather History & Observations

Time (CST) Temp. Windchill Dew Point Humidity Pressure Visibility Wind Dir Wind Speed Gust Speed Precip Events Conditions
12:52 AM 36.0 °F 24.2 °F 27.0 °F 70% 29.58 in 10.0 mi WSW 24.2 mph 35.7 mph N/A   Overcast
1:38 AM 35.6 °F 23.7 °F 26.6 °F 70% 29.58 in 10.0 mi West 24.2 mph 35.7 mph N/A   Overcast
1:52 AM 35.1 °F 23.3 °F 26.1 °F 70% 29.61 in 10.0 mi WSW 23.0 mph 35.7 mph N/A   Overcast
2:52 AM 34.0 °F 20.8 °F 23.0 °F 64% 29.63 in 10.0 mi West 27.6 mph 42.6 mph N/A   Overcast
3:52 AM 34.0 °F 22.1 °F 23.0 °F 64% 29.65 in 10.0 mi West 21.9 mph 36.8 mph N/A   Overcast
4:52 AM 33.1 °F 19.3 °F 23.0 °F 66% 29.68 in 10.0 mi West 28.8 mph 36.8 mph N/A   Overcast
5:52 AM 33.1 °F 20.1 °F 23.0 °F 66% 29.70 in 10.0 mi West 25.3 mph 38.0 mph N/A   Overcast
6:52 AM 33.1 °F 19.3 °F 21.9 °F 64% 29.73 in 10.0 mi West 28.8 mph 44.9 mph N/A   Overcast
7:52 AM 32.0 °F 18.4 °F 21.9 °F 66% 29.78 in 10.0 mi West 26.5 mph 46.0 mph N/A   Overcast
8:52 AM 32.0 °F 18.1 °F 21.9 °F 66% 29.81 in 10.0 mi West 27.6 mph 41.4 mph N/A   Overcast
9:52 AM 32.0 °F 18.1 °F 21.0 °F 64% 29.85 in 10.0 mi West 27.6 mph 38.0 mph N/A   Overcast
10:52 AM 32.0 °F 18.4 °F 21.0 °F 64% 29.89 in 10.0 mi West 26.5 mph 39.1 mph N/A   Overcast
11:52 AM 32.0 °F 19.5 °F 21.9 °F 66% 29.91 in 10.0 mi West 21.9 mph 31.1 mph N/A   Overcast
12:52 PM 32.0 °F 20.5 °F 21.0 °F 64% 29.93 in 10.0 mi WNW 18.4 mph 34.5 mph N/A   Overcast
1:14 PM 32.0 °F 20.1 °F 21.2 °F 64% 29.91 in 10.0 mi West 19.6 mph 35.7 mph N/A   Overcast
1:52 PM 32.0 °F 18.6 °F 19.9 °F 61% 29.94 in 10.0 mi West 25.3 mph 35.7 mph N/A   Overcast
2:52 PM 32.0 °F 17.9 °F 21.0 °F 64% 29.96 in 10.0 mi West 28.8 mph 36.8 mph N/A   Overcast
3:45 PM 32.0 °F 18.9 °F 21.2 °F 64% 29.96 in 10.0 mi West 24.2 mph 35.7 mph N/A   Overcast
3:52 PM 32.0 °F 20.5 °F 21.9 °F 66% 29.99 in 10.0 mi West 18.4 mph 35.7 mph N/A   Overcast
4:52 PM 32.0 °F 19.8 °F 21.9 °F 66% 30.01 in 10.0 mi West 20.7 mph 27.6 mph N/A   Overcast
5:52 PM 30.9 °F 18.7 °F 21.9 °F 69% 30.04 in 10.0 mi West 19.6 mph - N/A   Overcast
6:52 PM 30.9 °F 18.1 °F 21.9 °F 69% 30.06 in 10.0 mi West 21.9 mph - N/A   Overcast
7:52 PM 30.9 °F 19.8 °F 21.9 °F 69% 30.07 in 10.0 mi WNW 16.1 mph 23.0 mph N/A   Overcast
8:52 PM 30.9 °F 21.7 °F 21.9 °F 69% 30.08 in 10.0 mi WNW 11.5 mph - N/A   Overcast
9:52 PM 30.0 °F 18.7 °F 21.0 °F 69% 30.09 in 10.0 mi West 16.1 mph 23.0 mph N/A   Overcast
10:52 PM 30.0 °F 20.5 °F 21.0 °F 69% 30.10 in 10.0 mi WNW 11.5 mph 21.9 mph N/A   Overcast
11:52 PM 28.9 °F 17.3 °F 21.0 °F 72% 30.12 in 10.0 mi WNW 16.1 mph 24.2 mph N/A   Overcast